Volver al catálogo

NOAA 16 DEB

ActivoSSO
NORAD 41268·DEBRIS·🇺🇸 United States

Lanzado Sep 21, 2000 desde Vandenberg Space Force Base

Loading…

Próximos Pases (próximas 24 horas)

TLE

ActualizadoSource: Space-Track

Época: Sep 12, 2026, 11:42 UTC

1 41268U 00055FU  26255.48804798  .00002520  00000-0  11016-2 0  9999
2 41268  98.8584 351.0156 0023319  13.9849 346.1971 14.24589022552255

Sigue NOAA 16 DEB en tiempo real con AllMySat

Download on the App Store